Hurghada, Egypt

10:26 AM EET on July 24, 2016 (GMT +0200)
Hurghada International

Weather History for HEGN - June, 2013

Change the Weather History Date:

Tuesday, June 4, 2013

  Actual Average Record
Temperature  
Mean Temperature 92 °F -  
Max Temperature 101 °F 93 °F 111 °F (2016)
Min Temperature 82 °F 78 °F 39 °F (2004)
Cooling Degree Days 26    
Growing Degree Days 42 (Base 50)    
Moisture  
Dew Point 55 °F    
Average Humidity 29    
Maximum Humidity 43    
Minimum Humidity 17    
Precipitation  
Precipitation 0.00 in - - ()
Sea Level Pressure  
Sea Level Pressure 29.78 in    
Wind  
Wind Speed 19 mph ()    
Max Wind Speed 29 mph    
Max Gust Speed -    
Visibility 6.0 miles    
Events      
Averages and records for this station are not official NWS values.
T = Trace of Precipitation, MM = Missing Value Source: Averaged Metar Reports

Daily Weather History Graph

Daily Weather History Graph

Search for Another Location

Airport or City:

Trip Planner

Search our weather history database for the weather conditions in past years. The results will help you decide how hot, cold, wet, or windy it might be!

Date:

Astronomy

Jun. 04, 2013 Rise Set
Actual Time 4:49 AM EET 6:36 PM EET
Civil Twilight 4:23 AM EET 7:02 PM EET
Nautical Twilight 3:52 AM EET 7:34 PM EET
Astronomical Twilight 3:19 AM EET 8:07 PM EET
Moon 1:49 AM EET (6/4) 3:01 PM EET (6/4)
Length of Visible Light 14h 38m
Length of Day
13h 46m
Waning Crescent, 16% of the Moon is Illuminated
Jun 4
Waning Crescent
Jun 8
New
Jun 16
First Quarter
Jun 23
Full
Jun 30
Last Quarter

Hourly Weather History & Observations

Time (EET) Temp. Heat Index Dew Point Humidity Pressure Visibility Wind Dir Wind Speed Gust Speed Precip Events Conditions
12:00 AM 89.6 °F 87.7 °F 55.4 °F 31% 29.77 in - NW 19.6 mph - N/A   Clear
1:00 AM 89.6 °F 87.3 °F 53.6 °F 29% 29.74 in - NW 23.0 mph - N/A   Clear
2:00 AM 87 °F - 52 °F 20% 29.76 in 6 mi NW 24.2 mph - -  
2:00 AM 87.8 °F - 51.8 °F 29% 29.74 in - NW 24.2 mph - N/A   Clear
3:00 AM 86.0 °F - 50.0 °F 29% 29.74 in - NW 23.0 mph - N/A   Clear
4:00 AM 84.2 °F - 50.0 °F 30% 29.77 in - NW 16.1 mph - N/A   Clear
5:00 AM 82.4 °F - 48.2 °F 30% 29.77 in - WNW 20.7 mph - N/A   Clear
6:00 AM 84.2 °F - 44.6 °F 25% 29.77 in - NW 18.4 mph - N/A   Clear
7:00 AM 87.8 °F - 39.2 °F 18% 29.80 in - NW 18.4 mph - N/A   Clear
8:00 AM 91 °F - 52 °F 17% 29.81 in 6 mi North 19.6 mph - -  
8:00 AM 91.4 °F - 51.8 °F 26% 29.80 in - North 19.6 mph - N/A   Clear
9:00 AM 89.6 °F 88.9 °F 59.0 °F 36% 29.80 in - North 26.5 mph - N/A   Clear
10:00 AM 91.4 °F 91.4 °F 60.8 °F 36% 29.80 in - North 28.8 mph - N/A   Clear
11:00 AM 93.2 °F 94.1 °F 62.6 °F 36% 29.80 in - NNE 19.6 mph - N/A   Clear
12:00 PM 95.0 °F 97.0 °F 64.4 °F 36% 29.77 in - NNE 19.6 mph - N/A   Clear
1:00 PM 98.6 °F 102.8 °F 66.2 °F 35% 29.77 in - North 21.9 mph - N/A   Clear
2:00 PM 99 °F - 58 °F 17% 29.78 in 6 mi North 25.3 mph - -  
2:00 PM 98.6 °F 98.5 °F 59.0 °F 27% 29.77 in - North 25.3 mph - N/A   Clear
3:00 PM 100.4 °F 98.8 °F 55.4 °F 22% 29.74 in - North 23.0 mph - N/A   Clear
4:00 PM 96.8 °F 95.1 °F 55.4 °F 25% 29.74 in - North 23.0 mph - N/A   Clear
5:00 PM 98.6 °F 98.5 °F 59.0 °F 27% 29.74 in - North 23.0 mph - N/A   Clear
6:00 PM 93.2 °F 91.9 °F 57.2 °F 30% 29.74 in - North 20.7 mph - N/A   Clear
7:00 PM 87.8 °F 87.1 °F 59.0 °F 38% 29.77 in - NNE 12.7 mph - N/A   Clear
8:00 PM 87 °F - 59 °F 29% 29.81 in 6 mi North 13.8 mph - -  
8:00 PM 87.8 °F 87.1 °F 59.0 °F 38% 29.80 in - North 13.8 mph - N/A   Clear
9:00 PM 86.0 °F 86.1 °F 60.8 °F 43% 29.83 in - North 11.5 mph - N/A   Clear
10:00 PM 86.0 °F 85.4 °F 59.0 °F 40% 29.83 in - North 10.4 mph - N/A   Clear
11:00 PM 86.0 °F - 46.4 °F 25% 29.83 in - NW 18.4 mph - N/A   Clear